Location: ???????
(42.1853°N, 44.8435°E)
Time: 00:44:57
(UTC+00:00)

Daily predictions for brighter satellites

Satellite Brightness Start Highest point End
(mag) Time Altitude Azimuth Time Altitude Azimuth Time Altitude Azimuth
Cosmos 1943 3.2 00:03:19 10° NNW 00:08:51 62° WSW 00:14:21 10° S
Cosmos 2074 Rocket 4.1 00:02:43 10° N 00:09:02 84° E 00:15:17 10° S
CENTAUR R/B 2.4 00:08:13 23° SW 00:11:41 74° NW 00:18:27 10° NNE
NOSS 2-2 (C) 4.4 00:10:36 18° W 00:11:47 22° NW 00:14:16 10° N
Cosmos 2184 Rocket 4.0 00:06:54 10° N 00:13:05 86° E 00:19:16 10° S
IRIDIUM 114 4.4 00:08:31 10° N 00:13:46 84° E 00:18:59 10° S
Envisat 3.3 00:12:10 10° N 00:17:03 49° WNW 00:20:23 19° SW
Spot 2 4.4 00:12:59 10° SSE 00:17:57 86° WSW 00:22:51 10° NNW
Meteor 1-16 Rocket 4.2 00:16:42 10° NNW 00:21:51 53° W 00:26:59 10° S
IRIDIUM 103 4.3 00:17:41 10° N 00:22:55 80° W 00:28:07 10° S
Okean 2 3.7 00:22:23 22° SW 00:24:24 41° WNW 00:28:03 10° N
Cosmos 1867 3.5 00:21:42 10° NW 00:27:12 86° WSW 00:32:38 10° SSE
METEOR-M 4.2 00:22:39 10° NNE 00:28:01 83° ESE 00:33:20 10° SSW
Cosmos 1844 Rocket 3.0 00:24:56 18° SW 00:28:59 52° WNW 00:34:27 10° NNE
Cosmos 1603 3.7 00:27:19 10° NNW 00:33:07 88° WSW 00:38:50 10° SSE
ADEOS II 2.1 00:28:40 10° N 00:33:51 65° WNW 00:38:48 11° SSW
Resurs 1-4 Rocket 2.8 00:34:19 10° N 00:39:10 38° WNW 00:43:26 13° SW
Cosmos 2285 Rocket 4.1 00:33:11 10° NNW 00:39:18 55° WSW 00:45:26 10° S
NOSS 2-2 (D) 4.2 00:38:01 14° WSW 00:40:14 27° NW 00:42:54 10° NNE
IRIDIUM 106 4.5 00:36:05 10° NNW 00:41:10 54° W 00:46:14 10° SSW
JB-3 4.3 00:39:11 10° S 00:42:41 48° W 00:46:16 10° NNW
AQUA 4.0 00:39:22 10° NNE 00:44:03 71° ESE 00:48:41 10° S
Atlas Centaur 2 3.7 00:38:39 13° WSW 00:44:39 35° S 00:51:52 10° ESE
Cosmos 2344 3.7 00:37:12 10° SSW 00:45:27 73° ESE 00:52:35 10° NE
BREEZE-M DEB (TANK) 4.2 00:41:55 10° WNW 00:45:52 17° WSW 00:48:10 10° SSW
Okean 1-7 4.4 00:43:14 10° SSE 00:47:01 37° E 00:50:49 10° NNE
NOSS 3-2 (A) 3.1 00:46:01 10° SSW 00:50:52 80° ESE 00:56:35 10° NE
Cosmos 1933 Rocket 3.8 00:47:53 10° NNW 00:52:05 47° W 00:56:12 10° SSW
USA 281 3.8 00:47:16 10° SSW 00:53:06 34° WSW 00:58:59 10° NW
BREEZE-M DEB (TANK) 4.2 00:38:21 12° SW 00:55:11 74° SSE 00:59:31 10° ENE
SL-16 R/B 2.7 00:50:03 10° SSE 00:56:19 83° ENE 01:02:34 10° NNW
Cosmos 1538 Rocket 4.0 00:51:24 10° SSW 00:56:32 78° WNW 01:01:42 10° NNE
SL-24 R/B 4.4 00:55:40 10° NNE 00:59:20 57° E 01:03:14 10° S
Cosmos 1812 1.6 00:57:46 10° N 00:59:27 50° E 01:01:09 10° SSE
BREEZE-M DEB (TANK) 3.7 00:56:29 10° WNW 01:00:19 25° N 01:02:34 10° ENE
SL-08 RB Rocket 4.0 00:56:22 10° NNE 01:00:53 72° ESE 01:05:25 10° S
Cosmos 44 Rocket 4.2 00:58:10 10° NNW 01:03:18 57° NE 01:08:17 10° SE
Cosmos 1328 3.4 01:02:03 10° S 01:05:32 88° W 01:09:05 10° N
CZ-4C R/B 3.2 00:59:56 10° NW 01:07:11 90° W 01:16:07 10° SSE
Nadezhda 1 Rocket 4.3 01:02:01 10° SSW 01:07:54 49° WNW 01:13:47 10° N
Okean 3 4.5 01:04:29 10° SW 01:07:54 26° WNW 01:11:17 10° NNW
USA 307 4.3 01:07:04 10° WSW 01:08:22 12° SW 01:09:46 10° SSW
NOSS 3-2 (C) 4.3 01:04:15 10° S 01:08:43 38° ESE 01:13:50 10° NE
Cosmos 1441 Rocket 2.8 01:05:23 10° SSW 01:08:43 73° W 01:12:04 10° N
Tiangong -1.6 01:09:21 10° W 01:12:21 39° SSW 01:15:20 10° SE
CZ-2D R/B 3.5 01:09:47 10° NNW 01:13:55 23° WNW 01:18:05 10° WSW
ATLAS 2AS CENTAUR R/B 3.3 01:09:00 10° NW 01:14:56 34° WSW 01:20:56 10° S
Cosmos 1400 Rocket 3.0 01:11:19 10° NNW 01:14:58 46° W 01:18:34 10° S
